Location: Alma
(38.7220°N, 88.9090°W)
Time: 10:51:42
(UTC-06:00)

Vanguard 2 Rocket - Pass Details

Date: 16 November 2019
Orbit: 554 x 3326 km, 32.9° (Epoch: 09 December)

Event Time Altitude Azimuth Distance (km) Brightness Sun altitude
Rises 08:05:27 0° 270° (W) 4,616 10.0 13.6°
Reaches altitude 10° 08:08:49 10° 257° (WSW) 4,014 9.9 14.2°
Maximum altitude 08:17:25 25° 207° (SSW) 3,771 10.3 15.4°
Drops below altitude 10° 08:29:38 10° 161° (SSE) 5,798 12.3 17.2°
Sets 08:36:01 0° 150° (SSE) 7,114 12.9 18.1°
